Temperature
28 26 25 25 26 26 27 26 26 26 27 26 25 24 25 25 25 24 24 23 23 22 22 22 22 21 21 20 20 20 20 20 19 19 19 19 19 19 19 19 19 18 18 18
26 26 27 28 28 28 27 26 26 26 27 25 24 24 25 25 24 24 24 23 23 23 22 22 22 21 21 21 21 20 20 20 20 19 19 19 19 19 18 19 19 19 18 18
27 27 29 29 29 28 27 26 26 26 25 25 24 23 24 24 25 25 24 24 23 23 22 22 22 21 21 21 21 21 20 20 20 20 19 19 19 19 19 19 19 19 19 18
27 29 30 29 28 28 27 28 27 26 24 22 23 22 23 23 23 24 24 24 23 23 23 22 22 22 21 21 21 21 21 20 20 20 19 19 19 19 19 19 19 19 19 19
27 29 29 29 29 29 27 28 27 26 24 23 22 22 22 22 23 23 23 23 23 23 23 23 22 22 22 22 21 21 21 21 20 20 20 19 19 19 19 19 19 19 19 19
28 29 30 30 30 29 28 26 25 23 22 22 23 22 22 21 22 23 23 23 23 23 23 23 23 23 22 22 21 21 21 21 20 20 20 20 19 19 19 19 19 19 19 19
28 29 30 30 29 28 27 23 23 23 22 22 22 23 22 23 23 24 24 24 24 23 23 23 23 23 22 22 21 21 21 21 20 20 20 20 20 19 19 19 19 19 19 19
26 26 28 30 29 27 27 24 23 23 22 22 23 23 23 24 25 24 24 24 24 24 23 23 23 23 22 22 22 21 21 21 21 20 20 20 20 19 19 19 19 19 19 19
26 26 29 30 30 28 27 25 23 22 22 22 22 23 24 24 24 24 24 23 23 23 23 23 23 23 23 22 22 22 21 21 21 20 20 20 20 19 19 19 19 19 19 18
26 27 27 29 29 28 27 25 22 22 22 22 23 23 22 23 23 23 23 23 23 23 23 23 23 23 23 22 22 22 21 21 21 21 20 20 20 19 19 19 19 19 18 18
25 25 26 27 28 27 26 25 22 20 20 21 22 22 24 23 23 22 23 23 23 23 23 23 23 23 23 22 22 22 22 21 21 21 20 20 20 19 19 19 19 18 18 18
24 22 23 25 26 27 27 25 22 22 22 20 20 22 25 23 23 23 23 23 23 23 23 23 23 22 22 22 22 22 21 21 21 21 20 20 20 19 19 19 19 18 18 18
24 22 22 24 24 25 26 25 23 21 20 20 21 22 23 23 23 23 23 23 23 23 23 23 22 22 22 22 22 21 21 21 21 20 20 20 20 19 19 19 18 18 18 18
24 21 22 23 23 24 25 26 25 22 21 21 22 22 22 22 21 22 23 23 23 23 22 22 22 22 22 22 21 21 21 21 20 20 20 20 20 19 19 19 18 18 18 18
22 22 23 23 24 25 26 26 25 24 22 22 22 22 21 21 21 22 22 22 22 22 22 22 22 21 21 21 21 21 21 21 20 20 20 20 19 19 19 18 18 18 18 18
20 22 23 23 25 25 25 26 25 24 24 22 22 21 21 22 22 22 22 22 22 22 21 21 21 21 21 21 21 21 21 20 20 20 20 20 19 19 19 18 18 18 18 18
20 21 21 21 23 24 23 24 24 24 24 22 21 21 20 21 21 21 22 22 22 21 21 21 21 21 21 21 20 20 20 20 20 20 19 19 19 19 19 18 18 18 17 17
20 19 18 19 22 22 22 23 24 23 23 22 21 21 21 21 22 22 22 22 21 21 21 21 21 21 21 21 20 20 20 20 19 19 19 19 18 18 18 18 18 17 17 17
19 19 18 18 20 21 23 23 23 22 21 21 21 21 21 21 21 20 21 21 21 21 21 21 21 21 20 20 20 20 19 19 19 19 18 18 18 18 17 17 17 17 17 17
18 18 18 18 21 21 21 23 24 22 20 21 21 20 20 20 18 18 21 21 21 21 21 20 20 20 20 20 19 19 19 19 19 18 18 18 18 17 17 17 17 17 17 17
19 18 18 18 19 19 21 22 22 20 19 20 21 21 21 20 19 20 20 21 21 20 20 20 20 19 19 19 19 19 18 18 18 18 18 18 17 17 17 17 17 17 16 16
18 17 17 17 18 19 20 21 20 19 20 21 21 21 21 20 20 20 20 20 20 20 20 19 19 19 19 18 18 18 18 18 17 17 17 17 17 17 17 16 16 16 16 16
17 17 16 17 17 19 21 20 21 21 20 20 20 20 20 20 20 20 20 20 20 19 19 19 19 18 18 18 18 17 17 17 17 17 17 17 17 16 16 16 16 16 16 16
18 17 16 16 17 19 20 21 21 21 20 20 20 20 20 19 19 19 19 19 19 19 18 18 18 18 18 17 17 17 17 17 16 16 16 16 16 16 16 16 16 16 16 15
17 17 16 16 17 18 19 20 20 20 20 19 19 19 19 19 18 18 18 18 18 18 18 18 18 17 17 17 17 17 16 16 16 16 16 15 15 15 15 15 15 15 15 15
16 16 15 15 17 16 18 19 19 19 19 19 19 18 18 18 18 18 18 18 18 17 17 17 17 17 16 16 16 16 16 16 15 15 15 15 15 15 15 15 15 15 15 15
Wind_Speed
1 2 4 9 10 8 6 3 3 2 3 5 4 4 6 7 8 9 10 10 10 10 9 9 9 9 8 6 6 5 4 3 3 2 2 1 1 1 1 2 3 4 4 4
3 5 10 8 6 4 4 3 2 2 3 5 4 2 3 5 9 9 11 11 11 9 8 9 9 8 8 7 6 5 4 4 3 2 2 2 2 1 1 1 1 3 4 4
6 8 5 4 3 2 2 4 4 4 3 5 5 4 2 2 3 5 8 9 9 11 11 10 10 9 8 7 7 6 5 4 4 3 2 2 2 1 1 0 1 2 3 4
5 6 4 3 4 4 2 3 7 7 5 1 3 1 6 4 3 5 6 7 8 8 9 10 10 10 10 9 8 6 6 5 4 3 3 3 3 2 2 2 2 1 3 3
5 4 3 4 5 5 4 4 6 5 4 3 2 2 6 2 4 6 7 9 9 9 10 11 11 12 10 10 8 7 6 5 4 4 4 3 3 2 1 1 1 1 1 3
6 5 4 5 3 6 7 6 6 6 5 2 3 3 5 4 8 7 7 8 10 9 9 10 10 9 8 8 8 7 6 4 4 4 4 4 4 3 2 2 2 1 1 2
6 6 3 3 3 2 6 6 4 5 4 3 3 2 6 7 8 10 10 9 9 9 8 9 9 9 9 9 9 8 7 6 5 4 4 4 5 4 4 4 3 3 2 2
1 5 4 2 5 5 4 9 7 4 3 3 2 2 5 4 4 6 6 7 8 8 8 8 10 10 10 10 9 8 8 7 6 5 5 4 4 3 3 4 3 4 3 3
4 5 4 2 3 7 3 2 8 7 2 1 2 2 5 2 4 4 5 6 7 7 7 7 8 8 9 9 8 8 8 6 6 6 5 4 4 4 3 3 3 3 3 2
6 3 4 2 4 4 5 6 6 5 4 1 3 2 4 3 4 4 5 6 7 7 6 6 6 7 7 7 7 7 7 7 5 5 4 4 4 5 4 3 3 3 3 3
5 3 4 3 2 2 3 4 5 5 6 6 2 5 5 8 7 7 6 6 6 7 7 7 6 6 6 5 5 6 6 5 5 5 4 4 4 4 4 4 4 4 3 3
3 5 1 5 4 3 5 4 6 4 2 4 4 5 2 7 6 6 5 5 5 6 6 6 6 5 5 4 4 5 5 5 5 5 4 4 4 4 3 3 4 4 3 3
4 6 3 7 7 6 3 2 3 6 5 4 4 4 2 4 5 5 6 5 6 7 6 5 5 5 4 4 3 3 4 5 4 4 4 3 3 3 4 4 4 3 4 3
6 5 6 7 6 3 2 2 1 5 4 3 5 4 1 2 4 4 4 5 5 6 5 4 4 3 4 4 4 4 4 4 4 4 4 3 4 4 4 4 4 4 4 4
6 4 2 3 3 0 1 0 1 3 6 7 6 6 5 5 5 5 6 6 7 6 4 3 3 3 3 3 3 4 4 3 4 4 4 3 3 2 2 3 3 3 4 4
5 4 3 3 3 4 3 1 2 2 4 5 5 2 3 3 4 5 6 7 7 5 4 3 3 2 2 2 2 3 3 3 3 4 4 3 3 2 2 3 3 3 3 3
3 5 3 2 4 5 4 3 2 2 3 7 6 6 5 4 5 5 5 6 7 5 4 3 3 3 3 2 2 3 4 3 4 4 4 4 3 3 3 3 3 3 3 2
5 4 4 1 4 1 6 3 4 5 2 3 5 6 7 7 5 4 5 5 5 4 3 3 2 2 1 1 1 1 1 3 3 4 3 3 3 3 3 3 3 3 3 3
7 7 4 4 2 3 5 3 1 4 3 2 6 6 5 6 7 4 3 5 4 3 2 1 2 2 1 1 1 1 0 1 3 4 4 4 4 3 3 4 4 4 3 3
6 7 6 4 3 4 5 5 1 7 2 3 5 6 5 5 3 2 0 4 4 4 3 2 1 2 1 1 1 2 0 1 3 4 5 5 5 5 5 5 4 3 4 4
4 4 4 4 3 4 5 5 4 5 4 2 3 5 4 3 5 4 2 3 4 3 3 3 3 2 0 0 1 1 0 2 3 3 3 4 5 6 6 5 4 3 3 4
4 3 2 3 2 5 5 4 4 5 3 2 3 3 4 4 4 4 3 3 3 3 2 3 3 2 2 1 2 1 1 2 2 2 2 3 4 4 4 4 3 3 4 4
2 5 5 5 5 5 1 4 4 6 5 3 4 4 5 4 3 3 2 2 2 2 2 1 1 1 2 2 1 0 2 2 2 2 2 3 3 2 2 3 3 3 3 4
2 2 4 2 0 0 3 4 4 5 5 4 5 5 4 4 2 2 2 2 2 1 1 1 1 1 2 2 2 1 2 1 1 2 2 2 2 2 2 3 3 4 4 4
2 2 3 1 1 3 4 3 5 6 6 6 5 5 4 4 2 1 2 1 1 1 0 1 1 0 1 2 2 2 1 0 1 2 2 2 2 3 3 3 4 5 5 5
2 3 4 4 5 3 2 1 4 6 5 5 5 3 2 2 0 1 2 1 1 1 0 1 1 1 2 2 2 2 1 1 0 2 2 2 3 2 2 3 4 5 5 5
Wind_Direction
262 101 219 220 208 199 192 189 193 178 141 107 121 142 168 170 169 171 173 174 175 179 176 165 164 160 155 151 149 150 148 156 142 131 138 142 162 180 186 201 191 175 168 169
357 256 236 218 226 195 180 152 129 97 98 99 107 105 184 178 189 183 176 176 176 173 167 167 165 162 163 164 162 159 160 161 158 162 165 170 167 179 188 210 190 179 170 174
219 246 234 205 202 149 155 162 159 152 84 61 79 10 295 235 186 180 174 171 171 175 173 173 171 170 170 172 173 171 172 171 166 154 128 111 81 57 65 187 229 207 179 175
247 251 232 217 204 153 201 193 146 136 112 125 117 159 274 235 208 195 181 172 178 181 174 176 175 177 179 181 176 171 173 173 169 155 147 154 161 177 211 204 209 209 181 173
255 231 215 221 208 152 172 142 121 131 122 81 54 119 277 225 205 210 188 177 183 188 183 185 185 185 183 179 175 174 173 177 174 167 169 168 180 197 203 179 175 185 182 175
256 258 210 195 190 137 129 76 52 55 72 59 239 163 263 224 210 203 194 181 184 185 184 187 186 180 180 175 173 173 173 182 182 179 177 177 185 187 169 180 187 197 188 187
311 303 276 168 118 74 100 90 40 12 21 258 247 171 247 234 201 191 190 187 178 176 183 188 184 181 180 177 179 178 177 185 187 184 189 192 194 187 188 194 196 191 186 203
221 292 271 203 165 174 169 138 152 179 208 270 328 227 261 237 186 162 162 168 165 168 182 188 189 185 182 181 180 181 184 191 191 190 199 200 195 196 203 202 199 197 202 206
178 252 283 241 164 140 133 150 155 133 126 83 297 308 326 66 102 121 131 139 150 157 169 183 184 179 179 179 180 184 185 190 193 196 197 198 197 197 204 203 198 206 207 199
166 244 289 296 54 31 139 143 92 111 140 178 303 260 227 197 163 153 149 161 158 150 144 144 154 162 169 176 177 173 178 185 188 188 195 199 205 206 199 188 191 198 205 192
131 144 310 12 117 166 64 79 101 114 139 146 201 265 224 186 171 164 164 165 156 152 156 154 154 153 151 157 163 168 173 177 185 191 196 197 199 197 189 190 197 196 197 185
133 121 243 271 269 185 133 142 134 135 186 146 156 270 309 156 153 146 142 141 144 146 151 150 146 136 132 144 158 169 174 179 192 196 193 196 199 192 190 198 200 188 183 190
115 103 64 345 345 2 45 81 121 125 115 133 151 254 5 107 118 120 119 123 131 135 134 132 131 138 147 157 162 163 172 185 190 184 185 191 192 197 204 207 200 190 184 187
109 101 147 187 220 247 336 338 98 116 132 169 189 188 111 101 115 116 113 120 120 123 132 137 140 152 167 174 176 173 180 190 190 186 190 195 202 207 206 199 192 192 189 188
93 104 141 203 230 223 74 201 120 149 173 172 193 172 185 176 161 147 132 120 116 118 120 127 142 157 166 170 180 180 189 192 186 180 189 209 210 202 188 188 196 199 201 202
78 110 63 357 1 13 8 343 107 160 171 154 132 177 209 151 113 112 120 127 129 133 136 145 154 159 178 186 192 192 197 192 173 176 195 203 197 194 191 190 189 196 205 206
93 107 87 298 322 31 342 288 170 138 164 151 164 195 159 125 125 143 142 136 141 148 152 155 158 169 187 202 205 201 206 192 177 185 193 193 193 192 195 194 186 199 204 205
134 111 120 107 45 213 247 278 122 119 83 143 147 154 156 153 150 144 140 137 137 145 152 166 167 160 179 197 223 228 190 187 189 191 197 201 207 206 194 186 201 211 209 209
143 136 124 124 164 267 300 335 25 117 45 50 126 126 119 106 79 44 69 108 120 116 115 134 164 152 162 207 204 135 108 203 198 202 201 204 206 211 209 212 216 220 217 225
76 102 118 126 145 218 261 305 345 100 67 345 116 127 129 104 97 233 177 108 107 97 90 83 80 82 105 243 137 118 235 223 224 222 209 203 197 203 215 221 219 224 216 223
53 59 113 142 178 246 274 309 51 106 214 266 124 142 137 143 179 193 152 109 117 115 106 96 78 68 352 235 104 106 266 256 253 241 212 207 206 209 212 210 214 222 225 230
151 137 157 137 159 246 299 36 108 182 195 125 102 114 114 123 123 123 117 107 122 119 95 89 72 33 3 42 90 61 295 273 288 271 214 213 219 229 227 205 214 219 219 228
141 177 173 176 203 236 260 137 162 149 125 116 108 112 109 104 113 119 106 97 120 121 114 98 94 35 360 23 72 94 270 280 298 287 257 233 222 222 216 205 212 222 226 231
326 66 92 68 336 63 83 102 102 106 111 112 114 112 104 103 88 98 90 71 76 86 99 80 75 25 344 341 358 311 264 274 294 281 274 256 238 239 241 229 217 215 223 237
256 59 85 97 243 29 25 74 99 91 91 90 89 91 92 93 69 130 142 140 135 113 68 100 111 343 306 317 323 321 300 305 319 288 286 292 272 247 249 250 241 236 230 228
269 170 155 214 224 171 225 324 91 94 91 96 92 68 60 90 92 238 191 185 162 159 120 62 22 301 294 303 300 292 267 195 213 307 303 284 270 267 253 262 287 283 266 262
Height
1499 1506 1512 1507 1505 1506 1508 1514 1517 1514 1507 1512 1516 1518 1517 1516 1517 1518 1519 1521 1522 1523 1525 1526 1527 1527 1527 1527 1527 1527 1528 1528 1528 1528 1529 1529 1529 1529 1530 1530 1529 1530 1530 1530
1504 1507 1497 1495 1497 1501 1506 1514 1516 1513 1508 1513 1519 1520 1517 1516 1516 1517 1518 1519 1521 1523 1525 1526 1527 1527 1527 1527 1527 1527 1528 1528 1528 1528 1529 1529 1529 1529 1529 1529 1529 1529 1529 1530
1506 1498 1491 1494 1499 1503 1507 1512 1514 1515 1513 1514 1521 1528 1521 1516 1516 1518 1518 1519 1521 1522 1523 1524 1525 1526 1526 1526 1527 1527 1527 1527 1528 1528 1529 1529 1529 1529 1529 1529 1529 1529 1529 1529
1499 1491 1491 1495 1499 1500 1512 1502 1504 1510 1522 1532 1527 1545 1529 1519 1517 1517 1518 1519 1520 1521 1522 1523 1524 1524 1525 1525 1526 1526 1527 1527 1527 1528 1528 1528 1528 1528 1528 1528 1528 1528 1528 1528
1497 1490 1492 1496 1494 1494 1502 1497 1502 1509 1520 1532 1532 1543 1535 1521 1521 1518 1516 1516 1518 1520 1520 1522 1522 1523 1524 1524 1525 1526 1526 1527 1527 1527 1527 1527 1527 1527 1527 1527 1527 1527 1527 1527
1490 1485 1486 1488 1487 1489 1494 1502 1508 1517 1528 1545 1536 1541 1538 1524 1517 1514 1513 1514 1516 1517 1519 1520 1521 1522 1523 1524 1525 1525 1526 1526 1526 1527 1527 1527 1527 1527 1527 1526 1526 1526 1527 1527
1497 1489 1483 1484 1491 1494 1497 1519 1540 1545 1552 1549 1532 1535 1532 1512 1507 1507 1509 1511 1513 1515 1517 1519 1520 1521 1522 1523 1523 1524 1525 1525 1526 1526 1526 1526 1526 1526 1526 1525 1525 1525 1526 1526
1511 1509 1488 1483 1488 1497 1499 1512 1540 1552 1556 1548 1533 1535 1520 1505 1504 1505 1507 1510 1511 1513 1515 1516 1517 1519 1520 1521 1522 1523 1524 1524 1525 1525 1525 1525 1525 1525 1525 1525 1525 1524 1525 1525
1508 1506 1485 1481 1480 1487 1500 1509 1512 1533 1541 1549 1541 1528 1514 1505 1506 1506 1508 1509 1510 1512 1513 1515 1516 1517 1519 1520 1521 1522 1523 1523 1524 1524 1525 1524 1524 1524 1524 1524 1524 1523 1524 1524
1493 1502 1489 1482 1481 1485 1490 1499 1517 1532 1549 1556 1544 1536 1529 1514 1510 1508 1508 1509 1509 1511 1512 1513 1515 1517 1518 1519 1520 1521 1522 1522 1523 1523 1523 1523 1523 1522 1522 1522 1522 1522 1522 1523
1488 1502 1499 1490 1493 1497 1497 1504 1515 1530 1535 1552 1555 1541 1509 1507 1506 1507 1508 1508 1508 1510 1512 1513 1514 1516 1517 1518 1519 1520 1520 1521 1521 1521 1522 1521 1521 1521 1521 1521 1521 1521 1521 1521
1488 1502 1510 1499 1487 1484 1489 1498 1511 1527 1535 1539 1546 1537 1502 1502 1503 1505 1507 1508 1509 1511 1512 1513 1514 1516 1517 1518 1518 1519 1519 1519 1520 1520 1520 1520 1519 1519 1519 1519 1519 1519 1519 1519
1487 1504 1520 1517 1507 1495 1494 1496 1502 1513 1527 1537 1543 1533 1505 1503 1504 1505 1506 1507 1509 1510 1512 1514 1514 1515 1516 1517 1517 1517 1518 1518 1519 1519 1519 1518 1518 1517 1517 1517 1517 1517 1517 1517
1482 1503 1515 1523 1517 1504 1502 1498 1498 1510 1528 1532 1528 1521 1512 1508 1506 1506 1505 1507 1508 1509 1512 1513 1513 1514 1515 1516 1516 1516 1517 1517 1517 1517 1517 1516 1516 1515 1515 1515 1515 1515 1515 1515
1485 1502 1501 1501 1497 1495 1497 1497 1497 1504 1511 1520 1518 1515 1511 1508 1505 1505 1505 1507 1509 1510 1512 1513 1513 1514 1514 1514 1514 1515 1515 1515 1515 1515 1515 1515 1514 1514 1514 1513 1513 1513 1513 1513
1489 1499 1501 1503 1495 1495 1497 1495 1496 1499 1502 1507 1510 1512 1505 1505 1505 1506 1506 1507 1508 1509 1511 1512 1512 1512 1513 1512 1512 1513 1513 1513 1513 1513 1513 1513 1512 1512 1511 1511 1511 1511 1510 1510
1494 1500 1510 1515 1503 1500 1511 1499 1497 1499 1498 1501 1509 1508 1504 1506 1506 1506 1507 1507 1508 1509 1510 1510 1511 1511 1511 1511 1511 1510 1511 1511 1511 1511 1511 1510 1510 1510 1509 1509 1509 1508 1508 1507
1493 1502 1513 1517 1513 1524 1511 1492 1491 1495 1497 1496 1498 1500 1501 1503 1505 1506 1507 1507 1508 1509 1510 1510 1510 1509 1509 1509 1509 1509 1508 1508 1508 1508 1508 1508 1508 1508 1507 1506 1506 1506 1506 1505
1484 1497 1512 1522 1523 1518 1503 1494 1493 1497 1503 1498 1498 1500 1502 1503 1505 1507 1508 1508 1509 1509 1509 1509 1509 1508 1508 1508 1507 1507 1506 1505 1505 1505 1505 1505 1505 1505 1504 1503 1503 1503 1503 1502
1486 1492 1508 1517 1520 1524 1509 1493 1489 1494 1509 1501 1499 1500 1502 1502 1510 1510 1508 1508 1508 1508 1508 1507 1507 1507 1506 1506 1505 1504 1503 1503 1502 1502 1501 1501 1501 1501 1500 1500 1499 1499 1499 1499
1499 1503 1510 1516 1519 1513 1499 1491 1490 1510 1513 1502 1500 1500 1501 1502 1505 1507 1506 1506 1506 1506 1506 1506 1505 1505 1505 1504 1503 1502 1501 1500 1499 1499 1499 1498 1498 1497 1497 1496 1496 1496 1496 1495
1504 1510 1513 1516 1521 1516 1494 1493 1498 1503 1499 1500 1500 1501 1502 1502 1503 1504 1504 1504 1505 1504 1504 1504 1503 1503 1503 1502 1501 1499 1498 1497 1496 1496 1495 1495 1495 1494 1493 1493 1492 1492 1492 1491
1499 1501 1504 1507 1509 1498 1493 1494 1495 1496 1497 1499 1500 1501 1502 1502 1502 1503 1503 1503 1502 1503 1503 1502 1502 1501 1500 1499 1499 1497 1496 1495 1494 1493 1492 1492 1491 1491 1490 1489 1489 1489 1488 1487
1495 1493 1498 1502 1499 1496 1495 1494 1495 1496 1496 1498 1499 1500 1500 1501 1501 1501 1502 1502 1501 1501 1501 1500 1500 1499 1498 1497 1496 1495 1494 1493 1491 1490 1489 1488 1488 1487 1487 1486 1486 1485 1484 1483
1495 1495 1499 1501 1499 1498 1497 1496 1496 1496 1497 1497 1498 1499 1499 1499 1500 1500 1500 1500 1500 1500 1499 1498 1498 1497 1495 1495 1494 1492 1491 1490 1489 1487 1486 1485 1484 1484 1483 1482 1482 1482 1481 1480
1493 1495 1499 1501 1497 1497 1498 1497 1496 1496 1496 1496 1497 1498 1499 1498 1498 1499 1498 1498 1498 1498 1498 1497 1496 1495 1494 1492 1491 1490 1488 1488 1486 1485 1484 1483 1482 1481 1480 1479 1479 1478 1478 1477